FENGYUN 1C DEB *, 47001

Orbit data source: Space-Track

FENGYUN 1C DEB *, 47001 is space debris in SSO originally from a launch on Mon, 10 May 1999 UTC launched from the Taiyaun Space Center, China (TSC). Fengyun 1C debris stems from the Chinese weather satellite Fengyun-1C, which was intentionally destroyed by a Chinese anti-satellite missile in 2007. This event dramatically increased the amount of space debris, with thousands of trackable fragments posing hazards to satellites and human spaceflight. The Fengyun 1C debris cloud has become a focal point in discussions about space sustainability and the need for international regulations to prevent the creation of new debris.

Loading next visibility...
Identifier
47001, 1999-025FAB
Orbit
SSO
Country
Flag of CNCN / PRC
Related business
Manufacturer
Unknown
Mission
Spacecraft
Bus & Motor
Unknown
Mass
Unknown
Launch date (UTC)
1999-05-10 (27 years ago)
Launch vehicle
Unknown
Launch site
Taiyaun Space Center, China (TSC)
Object type
Payload
Rocket body
Debris
Shape & HBR
Unknown shape, 0.1 m
Radar Cross Section
Small (<0.1 m²)

Expand to show TLE details & history
Last TLE update: 2 weeks ago

TLE from 2 weeks ago
0 FENGYUN 1C DEB *
1 47001U 99025FAB 26161.48259438  .00003400  00000-0  10758-2 0  9996
2 47001  99.2890 239.5677 0049912 241.7831 117.8310 14.40163898765004
Epoch: 2026-06-10T11:34Z
TLE epoch observation values (Epoch: 2026-06-10T11:34:56.154Z)
Latitude
-0.00001°
Longitude
166.99362°
Altitude
777.65 km
Speed
7.456 km/s
True Right ascension
15h 58m 16s
True Declination
0° 00' 00"
Sunlit
Object was in full shadow at epoch
Visualization orbit readout
Latitude
Unknown
Longitude
Unknown
Altitude
Unknown
Speed
Unknown
Apparent Right ascension
Unknown
Apparent Declination
Unknown
Sunlit
N/A
Visualization observer readout
Local Sidereal Time
21:56:19
Azimuth
Unknown
Elevation
Unknown
Doppler factor
Unknown
Orbital elements
Apogee altitude
790.721 km
Perigee altitude
719.514 km
Semi-major axis
7,133.254 km
Eccentricity
0.00499
Inclination
99.289°
RAAN
239.5677°
Arg. of periapsis
241.7831°
True anomaly
118.33532°
Mean anomaly
117.831°
Eccentric anomaly
118.08331°
Mean motion
3.60256 °/min
Orbital period
99.93 mins
BSTAR
0.0010758
Loading maneuver chart data...
Computing Atmospheric mass density...

Documentation

Showing up to 5 results
|